Weather History for Pensacola NAS, FL

Change the Weather History Date:

Friday, December 28, 2012

  Actual Average Record
Temperature  
Mean Temperature 52 °F -  
Max Temperature 66 °F 58 °F 75 °F (2008)
Min Temperature 39 °F 39 °F 24 °F (2010)
Degree Days  
Heating Degree Days 12    
Growing Degree Days 2 (Base 50)    
Moisture  
Dew Point 56 °F    
Average Humidity 89    
Maximum Humidity 100    
Minimum Humidity 70    
Precipitation  
Precipitation 0.05 in - - ()
Sea Level Pressure  
Sea Level Pressure 29.89 in    
Wind  
Wind Speed 9 mph (SSE)    
Max Wind Speed 24 mph    
Max Gust Speed 40 mph    
Visibility 9 miles    
Events Rain    
Averages and records for this station are not official NWS values.
T = Trace of Precipitation, MM = Missing Value Source: NWS Daily Summary

Daily Weather History Graph

Daily Weather History Graph

Search for Another Location

Airport:

Trip Planner

Search our weather history database for the weather conditions in past years. The results will help you decide how hot, cold, wet, or windy it might be!

Date:

Astronomy

Dec. 28, 2012 Rise Set
Actual Time 6:45 AM CST 4:57 PM CST
Civil Twilight 6:18 AM CST 5:23 PM CST
Nautical Twilight 5:48 AM CST 5:53 PM CST
Astronomical Twilight 5:19 AM CST 6:23 PM CST
Moon 5:29 PM CST (12/28) 6:42 AM CST (12/28)
Length of Visible Light 11h 05m
Length of Day
10h 12m
Full, 100% of the Moon is Illuminated
Dec 28
Full
Jan 4
Last Quarter
Jan 11
New
Jan 18
First Quarter
Jan 26
Full

Hourly Weather History & Observations

Time (CST) Temp. Windchill Dew Point Humidity Pressure Visibility Wind Dir Wind Speed Gust Speed Precip Events Conditions
12:56 AM 39.9 °F - 37.9 °F 93% 30.08 in 10.0 mi Calm Calm - N/A   Clear
1:56 AM 43.0 °F 38.8 °F 39.0 °F 86% 30.07 in 10.0 mi East 6.9 mph - N/A   Clear
2:56 AM 44.1 °F 40.1 °F 41.0 °F 89% 30.08 in 10.0 mi ENE 6.9 mph - N/A   Clear
3:56 AM 43.0 °F 40.3 °F 39.9 °F 89% 30.06 in 10.0 mi NE 4.6 mph - N/A   Clear
4:56 AM 45.0 °F 41.8 °F 42.1 °F 90% 30.06 in 10.0 mi ENE 5.8 mph - N/A   Clear
5:56 AM 46.0 °F 41.4 °F 44.1 °F 93% 30.04 in 10.0 mi ENE 9.2 mph - N/A   Mostly Cloudy
6:56 AM 48.0 °F - 46.9 °F 96% 30.00 in 10.0 mi East 9.2 mph - N/A   Mostly Cloudy
7:56 AM 54.0 °F - 48.9 °F 83% 30.03 in 10.0 mi Variable 4.6 mph - N/A   Mostly Cloudy
8:56 AM 60.1 °F - 51.1 °F 72% 30.03 in 10.0 mi SE 11.5 mph - N/A   Mostly Cloudy
9:56 AM 63.0 °F - 53.1 °F 70% 30.01 in 10.0 mi SSE 12.7 mph - N/A   Mostly Cloudy
10:56 AM 63.0 °F - 54.0 °F 72% 29.98 in 10.0 mi SSE 12.7 mph - N/A   Mostly Cloudy
11:56 AM 63.0 °F - 55.0 °F 75% 29.94 in 10.0 mi SE 10.4 mph - N/A   Overcast
12:56 PM 64.0 °F - 55.9 °F 75% 29.90 in 10.0 mi SE 11.5 mph - N/A   Overcast
1:04 PM 64.4 °F - 55.4 °F 73% 29.89 in 10.0 mi SE 12.7 mph - N/A   Overcast
1:56 PM 64.9 °F - 57.0 °F 75% 29.88 in 10.0 mi SE 10.4 mph - N/A   Overcast
2:56 PM 64.0 °F - 59.0 °F 84% 29.87 in 10.0 mi SE 11.5 mph - N/A   Overcast
3:56 PM 64.0 °F - 60.1 °F 87% 29.86 in 10.0 mi SE 9.2 mph 17.3 mph 0.00 in   Overcast
4:56 PM 64.0 °F - 60.1 °F 87% 29.85 in 10.0 mi SSE 13.8 mph - N/A   Overcast
5:56 PM 64.9 °F - 61.0 °F 87% 29.82 in 10.0 mi SSE 17.3 mph - N/A   Overcast
6:46 PM 64.4 °F - 62.6 °F 94% 29.79 in 10.0 mi SSE 19.6 mph 25.3 mph 0.00 in Rain Light Rain
6:56 PM 64.9 °F - 62.1 °F 90% 29.79 in 10.0 mi SSE 24.2 mph 29.9 mph 0.00 in Rain Light Rain
7:40 PM 64.4 °F - 62.6 °F 94% 29.77 in 10.0 mi South 19.6 mph - 0.00 in   Overcast
7:56 PM 66.0 °F - 64.0 °F 93% 29.78 in 10.0 mi South 20.7 mph 27.6 mph 0.00 in   Overcast
8:03 PM 66.2 °F - 64.4 °F 94% 29.76 in 10.0 mi South 18.4 mph - 0.00 in Rain Light Rain
8:20 PM 66.2 °F - 64.4 °F 94% 29.75 in 9.0 mi South 21.9 mph - 0.00 in   Overcast
8:56 PM 66.0 °F - 64.9 °F 96% 29.75 in 9.0 mi South 20.7 mph - 0.00 in   Overcast
9:47 PM 66.2 °F - 66.2 °F 100% 29.77 in 5.0 mi SSW 16.1 mph - 0.01 in Rain Rain
9:56 PM 66.0 °F - 66.0 °F 100% 29.79 in 3.0 mi SW 19.6 mph 40.3 mph 0.05 in Rain Heavy Rain
10:06 PM 66.2 °F - 64.4 °F 94% 29.78 in 7.0 mi WSW 8.1 mph 26.5 mph 0.00 in Rain Light Rain
10:15 PM 64.4 °F - 64.4 °F 100% 29.79 in 6.0 mi West 5.8 mph - 0.00 in Rain Light Rain
10:56 PM 64.0 °F - 64.0 °F 100% 29.80 in 10.0 mi Variable 5.8 mph - 0.00 in   Overcast
11:04 PM 64.4 °F - 64.4 °F 100% 29.79 in 10.0 mi WNW 4.6 mph - N/A   Overcast
11:56 PM 63.0 °F - 63.0 °F 100% 29.80 in 10.0 mi West 5.8 mph - N/A   Overcast